When you browse on this site, cookies collect data to enhance your experience and personalize the content and advertising you see.
Visit our Privacy Policy to learn more. By continuing to use the site, you agree to this use of cookies and data.
  • In United Kingdom
  • List of Countries
  • For 7 days
  • Water Temperature
  • Satellite Maps
  • Weather Map
  • Weather Widgets
  • user-avatar
    Login

    Hourly Weather Graz

    Today, 18 February, Monday

    Time Temperature Precipitation Wind Pressure Humidity
    00:00 +6°C° 0 mm 1 mps 730 mmHg 66%
    01:00 +6°C° 0 mm 1 mps 730 mmHg 65%
    02:00 +6°C° 0 mm 1 mps 730 mmHg 64%
    03:00 +5°C° 0 mm 1 mps 729 mmHg 63%
    04:00 +5°C° 0 mm 1 mps 729 mmHg 62%
    05:00 +5°C° 0 mm 1 mps 729 mmHg 61%
    06:00 +5°C° 0 mm 1 mps 729 mmHg 60%
    07:00 +4°C° 0 mm 1 mps 729 mmHg 57%
    08:00 +6°C° 0 mm 1 mps 729 mmHg 52%
    09:00 +7°C° 0 mm 0 mps 729 mmHg 46%
    10:00 +10°C° 0 mm 0 mps 729 mmHg 40%
    11:00 +11°C° 0 mm 0 mps 729 mmHg 38%
    12:00 +13°C° 0 mm 1 mps 728 mmHg 37%
    13:00 +14°C° 0 mm 1 mps 728 mmHg 35%
    14:00 +14°C° 0 mm 1 mps 728 mmHg 38%
    15:00 +14°C° 0 mm 1 mps 727 mmHg 42%
    16:00 +13°C° 0 mm 1 mps 727 mmHg 45%
    17:00 +11°C° 0 mm 1 mps 727 mmHg 52%
    18:00 +8°C° 0 mm 0 mps 727 mmHg 58%
    19:00 +6°C° 0 mm 0 mps 727 mmHg 65%
    20:00 +6°C° 0 mm 0 mps 727 mmHg 66%
    21:00 +6°C° 0 mm 1 mps 727 mmHg 68%
    22:00 +6°C° 0 mm 1 mps 727 mmHg 69%
    23:00 +6°C° 0 mm 1 mps 726 mmHg 70%

    Tomorrow, 19 February, Tuesday

    Time Temperature Precipitation Wind Pressure Humidity
    00:00 +5°C° 0 mm 1 mps 726 mmHg 71%
    01:00 +5°C° 0 mm 1 mps 726 mmHg 73%
    02:00 +5°C° 0 mm 1 mps 726 mmHg 72%
    03:00 +5°C° 0 mm 1 mps 726 mmHg 72%
    04:00 +4°C° 0 mm 1 mps 726 mmHg 71%
    05:00 +4°C° 0 mm 1 mps 726 mmHg 69%
    06:00 +4°C° 0 mm 1 mps 726 mmHg 67%
    07:00 +4°C° 0 mm 1 mps 726 mmHg 65%
    08:00 +6°C° 0 mm 1 mps 726 mmHg 58%
    09:00 +8°C° 0 mm 1 mps 726 mmHg 50%
    10:00 +9°C° 0 mm 0 mps 726 mmHg 43%
    11:00 +11°C° 0 mm 0 mps 726 mmHg 40%
    12:00 +12°C° 0 mm 0 mps 726 mmHg 37%
    13:00 +14°C° 0 mm 0 mps 726 mmHg 34%
    14:00 +13°C° 0 mm 0 mps 726 mmHg 37%
    15:00 +14°C° 0 mm 1 mps 726 mmHg 40%
    16:00 +13°C° 0 mm 1 mps 725 mmHg 42%
    17:00 +11°C° 0 mm 1 mps 726 mmHg 50%
    18:00 +10°C° 0 mm 1 mps 726 mmHg 57%
    19:00 +7°C° 0 mm 0 mps 726 mmHg 64%
    20:00 +7°C° 0 mm 1 mps 727 mmHg 66%
    21:00 +7°C° 0 mm 1 mps 727 mmHg 69%
    22:00 +6°C° 0 mm 1 mps 727 mmHg 72%
    23:00 +6°C° 0 mm 1 mps 727 mmHg 73%

    Day after tomorrow, 20 February, Wednesday

    Time Temperature Precipitation Wind Pressure Humidity
    00:00 +6°C° 0 mm 1 mps 727 mmHg 74%
    01:00 +5°C° 0 mm 1 mps 728 mmHg 74%
    02:00 +5°C° 0 mm 1 mps 728 mmHg 74%
    03:00 +5°C° 0 mm 1 mps 728 mmHg 74%
    04:00 +5°C° 0 mm 1 mps 728 mmHg 74%
    05:00 +5°C° 0 mm 1 mps 728 mmHg 74%
    06:00 +4°C° 0 mm 1 mps 728 mmHg 75%
    07:00 +4°C° 0 mm 1 mps 728 mmHg 75%
    08:00 +6°C° 0 mm 1 mps 729 mmHg 69%
    09:00 +8°C° 0 mm 1 mps 729 mmHg 63%
    10:00 +9°C° 0 mm 0 mps 730 mmHg 57%
    11:00 +10°C° 0 mm 0 mps 730 mmHg 54%
    12:00 +11°C° 0 mm 0 mps 730 mmHg 51%
    13:00 +13°C° 0 mm 1 mps 730 mmHg 48%
    14:00 +13°C° 0 mm 1 mps 729 mmHg 50%
    15:00 +12°C° 0 mm 1 mps 729 mmHg 51%
    16:00 +12°C° 0 mm 1 mps 729 mmHg 53%
    17:00 +10°C° 0 mm 1 mps 729 mmHg 60%
    18:00 +8°C° 0 mm 0 mps 730 mmHg 67%
    19:00 +6°C° 0 mm 0 mps 730 mmHg 74%
    20:00 +6°C° 0 mm 0 mps 730 mmHg 75%
    21:00 +7°C° 0 mm 1 mps 730 mmHg 77%
    22:00 +6°C° 0 mm 1 mps 731 mmHg 78%
    23:00 +6°C° 0 mm 1 mps 731 mmHg 79%

    21 February, Thursday

    Time Temperature Precipitation Wind Pressure Humidity
    00:00 +6°C° 0 mm 1 mps 731 mmHg 81%
    01:00 +5°C° 0 mm 1 mps 731 mmHg 82%
    02:00 +5°C° 0 mm 1 mps 731 mmHg 82%
    03:00 +5°C° 0 mm 1 mps 731 mmHg 82%
    04:00 +5°C° 0 mm 1 mps 731 mmHg 82%
    05:00 +5°C° 0 mm 1 mps 731 mmHg 81%
    06:00 +5°C° 0 mm 1 mps 731 mmHg 81%
    07:00 +5°C° 0 mm 1 mps 732 mmHg 80%
    08:00 +6°C° 0 mm 1 mps 732 mmHg 72%
    09:00 +8°C° 0 mm 1 mps 732 mmHg 64%
    10:00 +10°C° 0 mm 1 mps 732 mmHg 56%
    11:00 +11°C° 0 mm 1 mps 732 mmHg 53%
    12:00 +11°C° 0 mm 0 mps 732 mmHg 50%
    13:00 +12°C° 0 mm 0 mps 732 mmHg 46%
    14:00 +12°C° 0 mm 0 mps 732 mmHg 47%
    15:00 +13°C° 0 mm 1 mps 732 mmHg 47%
    16:00 +14°C° 0 mm 1 mps 732 mmHg 47%
    17:00 +12°C° 0 mm 1 mps 732 mmHg 52%
    18:00 +11°C° 0 mm 1 mps 732 mmHg 58%
    19:00 +9°C° 0 mm 1 mps 732 mmHg 64%
    20:00 +7°C° 0 mm 2 mps 733 mmHg 66%
    21:00 +7°C° 0 mm 2 mps 733 mmHg 68%
    22:00 +6°C° 0 mm 2 mps 733 mmHg 70%
    23:00 +6°C° 0 mm 2 mps 733 mmHg 68%

    22 February, Friday

    Time Temperature Precipitation Wind Pressure Humidity
    00:00 +6°C° 0 mm 2 mps 733 mmHg 67%
    01:00 +6°C° 0 mm 2 mps 733 mmHg 66%
    02:00 +5°C° 0 mm 2 mps 733 mmHg 67%
    03:00 +5°C° 0 mm 2 mps 733 mmHg 68%
    04:00 +5°C° 0 mm 2 mps 734 mmHg 68%
    05:00 +5°C° 0 mm 2 mps 734 mmHg 70%
    06:00 +5°C° 0 mm 2 mps 734 mmHg 71%
    07:00 +5°C° 0 mm 2 mps 734 mmHg 73%
    08:00 +6°C° 0 mm 2 mps 734 mmHg 71%
    09:00 +7°C° 0 mm 2 mps 735 mmHg 69%
    10:00 +8°C° 0 mm 2 mps 735 mmHg 67%
    11:00 +9°C° 0 mm 2 mps 735 mmHg 63%
    12:00 +11°C° 0 mm 3 mps 735 mmHg 59%
    13:00 +12°C° 0 mm 3 mps 736 mmHg 56%
    14:00 +12°C° 0 mm 3 mps 736 mmHg 57%
    15:00 +12°C° 0 mm 3 mps 736 mmHg 57%
    16:00 +12°C° 0 mm 3 mps 736 mmHg 58%
    17:00 +10°C° 0 mm 3 mps 736 mmHg 65%
    18:00 +9°C° 0 mm 2 mps 737 mmHg 72%
    19:00 +8°C° 0 mm 1 mps 737 mmHg 78%
    20:00 +8°C° 0 mm 1 mps 738 mmHg 81%
    21:00 +7°C° 0 mm 1 mps 738 mmHg 84%
    22:00 +6°C° 0 mm 1 mps 739 mmHg 87%
    23:00 +6°C° 0 mm 1 mps 739 mmHg 88%

    23 February, Saturday

    Time Temperature Precipitation Wind Pressure Humidity
    00:00 +6°C° 0 mm 1 mps 739 mmHg 89%
    01:00 +5°C° 0 mm 1 mps 740 mmHg 90%
    02:00 +5°C° 0 mm 1 mps 740 mmHg 88%
    03:00 +5°C° 0 mm 1 mps 740 mmHg 87%
    04:00 +5°C° 0 mm 1 mps 740 mmHg 85%
    05:00 +5°C° 0 mm 1 mps 740 mmHg 86%
    06:00 +4°C° 0 mm 1 mps 740 mmHg 87%
    07:00 +3°C° 0 mm 0 mps 741 mmHg 87%
    08:00 +4°C° 0 mm 0 mps 741 mmHg 81%
    09:00 +5°C° 0 mm 0 mps 741 mmHg 75%
    10:00 +6°C° 0 mm 0 mps 741 mmHg 69%
    11:00 +8°C° 0 mm 0 mps 740 mmHg 63%
    12:00 +10°C° 0 mm 0 mps 740 mmHg 58%
    13:00 +13°C° 0 mm 1 mps 740 mmHg 52%
    14:00 +12°C° 0 mm 1 mps 739 mmHg 53%
    15:00 +12°C° 0 mm 1 mps 739 mmHg 54%
    16:00 +12°C° 0 mm 1 mps 739 mmHg 55%
    17:00 +10°C° 0 mm 1 mps 738 mmHg 61%
    18:00 +9°C° 0 mm 1 mps 738 mmHg 67%
    19:00 +7°C° 0 mm 1 mps 738 mmHg 73%
    20:00 +7°C° 0 mm 1 mps 738 mmHg 73%
    21:00 +7°C° 0 mm 1 mps 738 mmHg 74%
    22:00 +7°C° 0 mm 1 mps 738 mmHg 74%
    23:00 +6°C° 0 mm 2 mps 737 mmHg 73%
    Show more